When you browse on this site, cookies collect data to enhance your experience and personalize the content and advertising you see.
Visit our Privacy Policy to learn more. By continuing to use the site, you agree to this use of cookies and data.
  • In Slovakia
  • List of Countries
  • For 7 days
  • Water Temperature
  • Weather Map
  • Weather Widgets
  • user-avatar
    Login

    Hourly Weather Fügen

    Today, 24 October, Thursday

    Time Temperature Precipitation Wind Pressure Humidity
    00:00 +13°C° 0 mm 4 mps 695 mmHg 68%
    01:00 +13°C° 0 mm 4 mps 695 mmHg 67%
    02:00 +13°C° 0 mm 4 mps 694 mmHg 65%
    03:00 +13°C° 0 mm 4 mps 694 mmHg 63%
    04:00 +13°C° 0 mm 4 mps 694 mmHg 62%
    05:00 +13°C° 0 mm 4 mps 694 mmHg 59%
    06:00 +13°C° 0 mm 4 mps 694 mmHg 57%
    07:00 +13°C° 0 mm 4 mps 694 mmHg 55%
    08:00 +16°C° 0 mm 3 mps 695 mmHg 53%
    09:00 +17°C° 0 mm 3 mps 695 mmHg 50%
    10:00 +19°C° 0 mm 2 mps 695 mmHg 48%
    11:00 +20°C° 0 mm 2 mps 695 mmHg 46%
    12:00 +21°C° 0 mm 2 mps 695 mmHg 45%
    13:00 +23°C° 0 mm 2 mps 695 mmHg 44%
    14:00 +21°C° 0 mm 2 mps 694 mmHg 50%
    15:00 +20°C° 0 mm 2 mps 694 mmHg 57%
    16:00 +18°C° 0 mm 2 mps 694 mmHg 64%
    17:00 +17°C° 0 mm 2 mps 694 mmHg 69%
    18:00 +15°C° 0 mm 2 mps 694 mmHg 74%
    19:00 +14°C° 0 mm 2 mps 695 mmHg 79%
    20:00 +14°C° 0 mm 1 mps 695 mmHg 81%
    21:00 +13°C° 0 mm 1 mps 695 mmHg 82%
    22:00 +13°C° 0 mm 1 mps 695 mmHg 83%
    23:00 +12°C° 0 mm 1 mps 695 mmHg 85%

    Tomorrow, 25 October, Friday

    Time Temperature Precipitation Wind Pressure Humidity
    00:00 +12°C° 0 mm 1 mps 696 mmHg 87%
    01:00 +11°C° 0 mm 0 mps 696 mmHg 89%
    02:00 +10°C° 0 mm 0 mps 696 mmHg 90%
    03:00 +10°C° 0 mm 0 mps 696 mmHg 92%
    04:00 +10°C° 0 mm 0 mps 696 mmHg 93%
    05:00 +10°C° 0 mm 0 mps 697 mmHg 92%
    06:00 +11°C° 0 mm 0 mps 697 mmHg 91%
    07:00 +11°C° 0 mm 0 mps 698 mmHg 90%
    08:00 +12°C° 0 mm 0 mps 699 mmHg 89%
    09:00 +12°C° 0 mm 0 mps 699 mmHg 89%
    10:00 +14°C° 0 mm 1 mps 699 mmHg 88%
    11:00 +15°C° 0 mm 1 mps 700 mmHg 82%
    12:00 +16°C° 0 mm 1 mps 700 mmHg 77%
    13:00 +17°C° 0 mm 0 mps 700 mmHg 72%
    14:00 +18°C° 0 mm 1 mps 700 mmHg 75%
    15:00 +18°C° 0 mm 1 mps 700 mmHg 78%
    16:00 +16°C° 0 mm 1 mps 699 mmHg 82%
    17:00 +15°C° 0 mm 1 mps 700 mmHg 86%
    18:00 +14°C° 0 mm 1 mps 700 mmHg 91%
    19:00 +12°C° 0 mm 0 mps 700 mmHg 96%
    20:00 +12°C° 0 mm 0 mps 700 mmHg 95%
    21:00 +12°C° 0 mm 1 mps 700 mmHg 94%
    22:00 +12°C° 0 mm 1 mps 700 mmHg 93%
    23:00 +12°C° 0 mm 1 mps 700 mmHg 92%

    Day after tomorrow, 26 October, Saturday

    Time Temperature Precipitation Wind Pressure Humidity
    00:00 +12°C° 0 mm 1 mps 700 mmHg 91%
    01:00 +12°C° 0 mm 2 mps 700 mmHg 90%
    02:00 +12°C° 0 mm 2 mps 700 mmHg 89%
    03:00 +12°C° 0 mm 2 mps 700 mmHg 88%
    04:00 +12°C° 0 mm 2 mps 699 mmHg 87%
    05:00 +12°C° 0 mm 2 mps 699 mmHg 86%
    06:00 +12°C° 0 mm 2 mps 699 mmHg 85%
    07:00 +12°C° 0 mm 2 mps 699 mmHg 84%
    08:00 +15°C° 0 mm 1 mps 700 mmHg 75%
    09:00 +18°C° 0 mm 1 mps 700 mmHg 67%
    10:00 +21°C° 0 mm 1 mps 701 mmHg 59%
    11:00 +22°C° 0 mm 1 mps 701 mmHg 55%
    12:00 +23°C° 0 mm 1 mps 701 mmHg 51%
    13:00 +24°C° 0 mm 1 mps 701 mmHg 47%
    14:00 +23°C° 0 mm 1 mps 700 mmHg 55%
    15:00 +22°C° 0 mm 1 mps 700 mmHg 63%
    16:00 +21°C° 0 mm 1 mps 699 mmHg 71%
    17:00 +19°C° 0 mm 1 mps 699 mmHg 74%
    18:00 +16°C° 0 mm 1 mps 699 mmHg 77%
    19:00 +14°C° 0 mm 1 mps 699 mmHg 80%
    20:00 +14°C° 0 mm 1 mps 699 mmHg 78%
    21:00 +14°C° 0 mm 1 mps 699 mmHg 76%
    22:00 +13°C° 0 mm 1 mps 700 mmHg 73%
    23:00 +13°C° 0 mm 1 mps 699 mmHg 71%

    , 27 October, Sunday

    Time Temperature Precipitation Wind Pressure Humidity
    00:00 +13°C° 0 mm 1 mps 699 mmHg 68%
    01:00 +12°C° 0 mm 1 mps 699 mmHg 65%
    02:00 +12°C° 0 mm 1 mps 699 mmHg 64%
    03:00 +12°C° 0 mm 1 mps 699 mmHg 63%
    04:00 +12°C° 0 mm 1 mps 699 mmHg 62%
    05:00 +12°C° 0 mm 1 mps 699 mmHg 61%
    06:00 +12°C° 0 mm 1 mps 699 mmHg 61%
    07:00 +12°C° 0 mm 1 mps 699 mmHg 61%
    08:00 +14°C° 0 mm 1 mps 699 mmHg 56%
    09:00 +16°C° 0 mm 0 mps 700 mmHg 51%
    10:00 +19°C° 0 mm 0 mps 700 mmHg 46%
    11:00 +20°C° 0 mm 0 mps 700 mmHg 45%
    12:00 +22°C° 0 mm 1 mps 700 mmHg 43%
    13:00 +23°C° 0 mm 1 mps 700 mmHg 42%
    14:00 +22°C° 0 mm 1 mps 699 mmHg 50%
    15:00 +21°C° 0 mm 1 mps 699 mmHg 58%
    16:00 +20°C° 0 mm 1 mps 698 mmHg 66%
    17:00 +18°C° 0 mm 1 mps 698 mmHg 72%
    18:00 +15°C° 0 mm 1 mps 698 mmHg 77%
    19:00 +12°C° 0 mm 0 mps 697 mmHg 83%
    20:00 +13°C° 0 mm 1 mps 697 mmHg 82%
    21:00 +12°C° 0 mm 1 mps 697 mmHg 81%
    22:00 +12°C° 0 mm 1 mps 697 mmHg 80%
    23:00 +12°C° 0 mm 1 mps 697 mmHg 81%

    27 October, Sunday

    Time Temperature Precipitation Wind Pressure Humidity
    00:00 +13°C° 0 mm 1 mps 699 mmHg 68%
    01:00 +12°C° 0 mm 1 mps 699 mmHg 65%
    02:00 +12°C° 0 mm 1 mps 699 mmHg 64%
    03:00 +12°C° 0 mm 1 mps 699 mmHg 63%
    04:00 +12°C° 0 mm 1 mps 699 mmHg 62%
    05:00 +12°C° 0 mm 1 mps 699 mmHg 61%
    06:00 +12°C° 0 mm 1 mps 699 mmHg 61%
    07:00 +12°C° 0 mm 1 mps 699 mmHg 61%
    08:00 +14°C° 0 mm 1 mps 699 mmHg 56%
    09:00 +16°C° 0 mm 0 mps 700 mmHg 51%
    10:00 +19°C° 0 mm 0 mps 700 mmHg 46%
    11:00 +20°C° 0 mm 0 mps 700 mmHg 45%
    12:00 +22°C° 0 mm 1 mps 700 mmHg 43%
    13:00 +23°C° 0 mm 1 mps 700 mmHg 42%
    14:00 +22°C° 0 mm 1 mps 699 mmHg 50%
    15:00 +21°C° 0 mm 1 mps 699 mmHg 58%
    16:00 +20°C° 0 mm 1 mps 698 mmHg 66%
    17:00 +18°C° 0 mm 1 mps 698 mmHg 72%
    18:00 +15°C° 0 mm 1 mps 698 mmHg 77%
    19:00 +12°C° 0 mm 0 mps 697 mmHg 83%
    20:00 +13°C° 0 mm 1 mps 697 mmHg 82%
    21:00 +12°C° 0 mm 1 mps 697 mmHg 81%
    22:00 +12°C° 0 mm 1 mps 697 mmHg 80%
    23:00 +12°C° 0 mm 1 mps 697 mmHg 81%

    28 October, Monday

    Time Temperature Precipitation Wind Pressure Humidity
    00:00 +12°C° 0 mm 1 mps 697 mmHg 81%
    01:00 +11°C° 0 mm 1 mps 697 mmHg 81%
    02:00 +11°C° 0 mm 1 mps 696 mmHg 81%
    03:00 +11°C° 0 mm 1 mps 696 mmHg 81%
    04:00 +11°C° 0 mm 1 mps 696 mmHg 81%
    05:00 +11°C° 0 mm 1 mps 696 mmHg 81%
    06:00 +11°C° 0 mm 1 mps 696 mmHg 81%
    07:00 +11°C° 0 mm 1 mps 695 mmHg 81%
    08:00 +13°C° 0 mm 1 mps 696 mmHg 74%
    09:00 +15°C° 0 mm 1 mps 696 mmHg 67%
    10:00 +16°C° 0 mm 0 mps 696 mmHg 61%
    11:00 +19°C° 0 mm 1 mps 696 mmHg 59%
    12:00 +20°C° 0 mm 1 mps 696 mmHg 57%
    13:00 +20°C° 0 mm 1 mps 696 mmHg 55%
    14:00 +19°C° 0 mm 1 mps 695 mmHg 62%
    15:00 +18°C° 0 mm 1 mps 695 mmHg 69%
    16:00 +16°C° 0 mm 1 mps 695 mmHg 76%
    17:00 +15°C° 0 mm 1 mps 695 mmHg 82%
    18:00 +13°C° 0 mm 1 mps 695 mmHg 89%
    19:00 +10°C° 0 mm 0 mps 695 mmHg 95%
    20:00 +10°C° 0 mm 0 mps 695 mmHg 95%
    21:00 +10°C° 0 mm 0 mps 695 mmHg 95%
    22:00 +10°C° 0 mm 0 mps 695 mmHg 95%
    23:00 +10°C° 0 mm 0 mps 695 mmHg 95%

    29 October, Tuesday

    Time Temperature Precipitation Wind Pressure Humidity
    00:00 +10°C° 0 mm 0 mps 695 mmHg 95%
    01:00 +10°C° 0 mm 0 mps 695 mmHg 95%
    02:00 +11°C° 0.1 mm 0 mps 695 mmHg 95%
    03:00 +11°C° 0.1 mm 0 mps 695 mmHg 96%
    04:00 +12°C° 0.1 mm 1 mps 695 mmHg 96%
    05:00 +12°C° 0.2 mm 1 mps 695 mmHg 97%
    06:00 +11°C° 0.2 mm 1 mps 695 mmHg 97%
    07:00 +11°C° 0.2 mm 1 mps 695 mmHg 97%
    08:00 +11°C° 0.6 mm 1 mps 695 mmHg 97%
    09:00 +11°C° 0.6 mm 1 mps 695 mmHg 97%
    10:00 +11°C° 0.6 mm 1 mps 695 mmHg 97%
    11:00 +10°C° 0.4 mm 1 mps 695 mmHg 97%
    12:00 +10°C° 0.4 mm 1 mps 695 mmHg 97%
    13:00 +10°C° 0.4 mm 1 mps 695 mmHg 97%
    14:00 +9°C° 0.3 mm 1 mps 695 mmHg 97%
    15:00 +9°C° 0.3 mm 1 mps 695 mmHg 97%
    16:00 +9°C° 0.3 mm 1 mps 695 mmHg 97%
    17:00 +8°C° 0.4 mm 1 mps 695 mmHg 97%
    18:00 +8°C° 0.4 mm 1 mps 695 mmHg 98%
    19:00 +8°C° 0.4 mm 1 mps 696 mmHg 98%
    20:00 +8°C° 0.4 mm 1 mps 696 mmHg 98%
    21:00 +7°C° 0.4 mm 1 mps 696 mmHg 98%
    22:00 +7°C° 0.4 mm 1 mps 696 mmHg 98%
    23:00 +7°C° 0.4 mm 1 mps 696 mmHg 98%
    Show more